Weather History for Farmington, NM

Change the Weather History Date:

Thursday, January 30, 2014

  Actual Average Record
Temperature  
Mean Temperature 44 °F -  
Max Temperature 59 °F 43 °F 63 °F (1986)
Min Temperature 30 °F 20 °F -8 °F (1979)
Degree Days  
Heating Degree Days 20    
Moisture  
Dew Point 19 °F    
Average Humidity 33    
Maximum Humidity 43    
Minimum Humidity 17    
Precipitation  
Precipitation 0.00 in - - ()
Sea Level Pressure  
Sea Level Pressure 29.76 in    
Wind  
Wind Speed 9 mph (SE)    
Max Wind Speed 26 mph    
Max Gust Speed 36 mph    
Visibility 10 miles    
Events Rain    
Averages and records for this station are not official NWS values.
T = Trace of Precipitation, MM = Missing Value Source: NWS Daily Summary

Daily Weather History Graph

Daily Weather History Graph

Search for Another Location

Airport:

Trip Planner

Search our weather history database for the weather conditions in past years. The results will help you decide how hot, cold, wet, or windy it might be!

Date:

Astronomy

Jan. 30, 2014 Rise Set
Actual Time 7:16 AM MST 5:36 PM MST
Civil Twilight 6:49 AM MST 6:03 PM MST
Nautical Twilight 6:18 AM MST 6:34 PM MST
Astronomical Twilight 5:47 AM MST 7:05 PM MST
Moon 6:45 AM MST (1/30) 5:50 PM MST (1/30)
Length of Visible Light 11h 14m
Length of Day
10h 20m
Waning Crescent, 0% of the Moon is Illuminated
Jan 30
Waning Crescent
Jan 30
New
Feb 6
First Quarter
Feb 14
Full
Feb 22
Last Quarter

Hourly Weather History & Observations

Time (MST) Temp. Windchill Dew Point Humidity Pressure Visibility Wind Dir Wind Speed Gust Speed Precip Events Conditions
12:53 AM 30.9 °F 25.2 °F 6.1 °F 35% 29.91 in 10.0 mi ESE 5.8 mph - N/A   Scattered Clouds
1:53 AM 30.9 °F 25.2 °F 7.0 °F 37% 29.88 in 10.0 mi East 5.8 mph - N/A   Overcast
2:53 AM 33.1 °F 28.7 °F 8.1 °F 35% 29.86 in 10.0 mi East 4.6 mph - N/A   Overcast
3:53 AM 34.0 °F 29.8 °F 9.0 °F 35% 29.85 in 10.0 mi East 4.6 mph - N/A   Overcast
4:53 AM 34.0 °F 26.6 °F 9.0 °F 35% 29.84 in 10.0 mi East 9.2 mph - N/A   Overcast
5:53 AM 34.0 °F 27.2 °F 10.0 °F 37% 29.84 in 10.0 mi ESE 8.1 mph - N/A   Overcast
6:53 AM 32.0 °F 25.6 °F 10.0 °F 40% 29.86 in 10.0 mi East 6.9 mph - N/A   Clear
7:53 AM 33.1 °F 26.9 °F 10.9 °F 40% 29.88 in 10.0 mi East 6.9 mph - N/A   Clear
8:53 AM 37.0 °F 32.4 °F 12.0 °F 36% 29.89 in 10.0 mi East 5.8 mph - N/A   Clear
9:53 AM 43.0 °F 37.2 °F 18.0 °F 37% 29.88 in 10.0 mi East 10.4 mph - N/A   Clear
10:53 AM 46.9 °F - 19.9 °F 34% 29.86 in 10.0 mi East 6.9 mph - N/A   Mostly Cloudy
11:53 AM 50.0 °F - 21.0 °F 32% 29.80 in 10.0 mi East 5.8 mph - N/A   Clear
12:53 PM 52.0 °F - 21.9 °F 31% 29.75 in 10.0 mi East 4.6 mph - N/A   Clear
1:53 PM 55.0 °F - 23.0 °F 29% 29.70 in 10.0 mi NW 3.5 mph - N/A   Clear
2:53 PM 57.9 °F - 23.0 °F 26% 29.66 in 10.0 mi WNW 8.1 mph - N/A   Mostly Cloudy
3:53 PM 57.9 °F - 25.0 °F 28% 29.65 in 10.0 mi West 18.4 mph 25.3 mph N/A   Overcast
4:53 PM 55.9 °F - 28.0 °F 34% 29.65 in 10.0 mi WSW 26.5 mph 33.4 mph N/A   Overcast
5:53 PM 54.0 °F - 30.9 °F 41% 29.67 in 10.0 mi WSW 20.7 mph 35.7 mph 0.00 in Rain Light Rain
6:53 PM 52.0 °F - 30.0 °F 43% 29.67 in 10.0 mi SSW 17.3 mph 24.2 mph 0.00 in   Overcast
7:53 PM 53.1 °F - 27.0 °F 37% 29.65 in 10.0 mi WSW 16.1 mph - N/A   Overcast
8:53 PM 52.0 °F - 27.0 °F 38% 29.65 in 10.0 mi WSW 17.3 mph 28.8 mph N/A   Overcast
9:53 PM 51.1 °F - 27.0 °F 39% 29.65 in 10.0 mi WSW 18.4 mph - N/A   Overcast
10:53 PM 50.0 °F - 27.0 °F 41% 29.64 in 10.0 mi WSW 12.7 mph - N/A   Overcast
11:53 PM 50.0 °F - 27.0 °F 41% 29.63 in 10.0 mi West 19.6 mph 32.2 mph N/A   Overcast